Location: Prairie State College
(41.5244°N, 87.6382°W)
Time: 08:29:08
(UTC-05:00)

ISS - All Passes

Search period start: 31 October 2014 00:00
Search period end: 09 November 2014 23:00
Orbit: 412 x 417 km, 51.6° (Epoch: 31 October)

Date Brightness Start Highest point End Pass type
(mag) Time Alt. Az. Time Alt. Az. Time Alt. Az.
31 Oct - 09:39:17 10° S 09:42:01 24° SE 09:44:46 10° ENE daylight
31 Oct - 11:15:22 10° WSW 11:18:33 42° NNW 11:21:45 10° NE daylight
31 Oct - 12:53:44 10° NW 12:55:54 16° N 12:58:04 10° NNE daylight
31 Oct - 14:31:19 10° NNW 14:33:35 17° N 14:35:50 10° NE daylight
31 Oct - 16:07:36 10° NW 16:10:52 49° NNE 16:14:08 10° ESE daylight
31 Oct - 17:44:48 10° W 17:47:20 20° SW 17:49:52 10° S daylight
01 Nov - 08:51:15 10° SSE 08:53:02 14° SE 08:54:48 10° E daylight
01 Nov - 10:26:01 10° WSW 10:29:20 70° NNW 10:32:39 10° NE daylight
01 Nov - 12:04:03 10° WNW 12:06:29 19° NNW 12:08:56 10° NNE daylight
01 Nov - 13:42:07 10° NNW 13:44:08 15° N 13:46:10 10° NE daylight
01 Nov - 15:18:32 10° NW 15:21:36 32° NNE 15:24:39 10° E daylight
01 Nov - 16:55:13 10° WNW 16:58:18 35° SW 17:01:22 10° SSE daylight
02 Nov - 08:36:50 10° SW 08:40:07 67° SE 08:43:26 10° ENE daylight
02 Nov - 10:14:19 10° WNW 10:17:04 23° NNW 10:19:49 10° NE daylight
02 Nov - 11:52:43 10° NW 11:54:39 14° N 11:56:34 10° NE daylight
02 Nov - 13:29:26 10° NW 13:32:13 24° NNE 13:35:00 10° ENE daylight
02 Nov - 15:05:50 10° WNW 15:09:09 65° SW 15:12:27 10° SE daylight
03 Nov - 07:47:52 10° SSW 07:50:56 36° SE 07:54:02 10° ENE daylight
03 Nov - 09:24:38 10° W 09:27:39 31° NNW 09:30:41 10° NE daylight
03 Nov - 11:03:06 10° NW 11:05:06 15° N 11:07:07 10° NNE daylight
03 Nov - 12:40:17 10° NNW 12:42:45 19° NNE 12:45:13 10° ENE daylight
03 Nov - 14:16:33 10° NW 14:19:53 72° NE 14:23:13 10° ESE daylight
03 Nov - 15:54:29 10° W 15:56:10 13° SW 15:57:52 10° SSW daylight
04 Nov - 06:59:14 10° S 07:01:47 21° SE 07:04:21 10° E daylight
04 Nov - 08:35:02 10° WSW 08:38:15 47° NNW 08:41:30 10° NE daylight
04 Nov - 10:13:19 10° NW 10:15:33 17° N 10:17:46 10° NNE daylight
04 Nov - 11:51:02 10° NNW 11:53:13 16° N 11:55:23 10° NE daylight
04 Nov - 13:27:19 10° NW 13:30:32 43° NNE 13:33:44 10° ESE daylight
04 Nov - 15:04:20 10° W 15:07:03 23° SW 15:09:46 10° S daylight
05 Nov - 06:11:23 10° SSE 06:12:39 12° SE 06:13:56 10° ESE daylight
05 Nov - 07:45:34 10° WSW 07:48:53 80° NW 07:52:13 10° NE daylight
05 Nov - 09:23:27 10° WNW 09:25:58 20° NNW 09:28:30 10° NNE daylight
05 Nov - 11:01:38 10° NNW 11:03:36 15° N 11:05:34 10° NE daylight
05 Nov - 12:38:05 10° NW 12:41:05 29° NNE 12:44:03 10° E daylight
05 Nov - 14:14:40 10° WNW 14:17:50 41° SW 14:20:59 10° SSE daylight
06 Nov - 06:56:17 10° SW 06:59:32 57° SE 07:02:48 10° ENE daylight
06 Nov - 08:33:35 10° W 08:36:24 25° NNW 08:39:14 10° NE daylight
06 Nov - 10:12:01 10° NW 10:13:56 14° N 10:15:52 10° NE daylight
06 Nov - 11:48:50 10° NW 11:51:32 22° NNE 11:54:13 10° ENE daylight
06 Nov - 13:25:10 10° WNW 13:28:30 76° SW 13:31:49 10° SE daylight
07 Nov - 06:07:14 10° SSW 06:10:12 31° SE 06:13:11 10° ENE daylight
07 Nov - 07:43:46 10° W 07:46:50 35° NNW 07:49:56 10° NE daylight
07 Nov - 09:22:12 10° NW 09:24:15 15° N 09:26:17 10° NNE daylight
07 Nov - 10:59:31 10° NNW 11:01:53 18° NNE 11:04:16 10° ENE daylight
07 Nov - 12:35:46 10° NW 12:39:04 62° NNE 12:42:22 10° ESE daylight
07 Nov - 14:13:20 10° W 14:15:24 16° SW 14:17:28 10° S daylight
08 Nov - 05:18:36 10° S 05:20:54 18° SE 05:23:13 10° E visible
08 Nov - 06:54:02 10° WSW 06:57:18 54° NNW 07:00:34 10° NE daylight
08 Nov - 08:32:14 10° NW 08:34:31 17° NNW 08:36:49 10° NNE daylight
08 Nov - 10:10:04 10° NNW 10:12:10 16° N 10:14:16 10° NE daylight
08 Nov - 11:46:23 10° NW 11:49:32 38° NNE 11:52:41 10° E daylight
08 Nov - 13:23:14 10° WNW 13:26:07 27° SW 13:28:58 10° SSE daylight
09 Nov - 06:04:28 10° SW 06:07:47 87° SE 06:11:06 10° NE visible
09 Nov - 07:42:12 10° WNW 07:44:48 21° NNW 07:47:24 10° NE daylight
09 Nov - 09:20:28 10° NNW 09:22:24 14° N 09:24:20 10° NE daylight
09 Nov - 10:57:00 10° NW 10:59:54 27° NNE 11:02:48 10° E daylight
09 Nov - 12:33:29 10° WNW 12:36:42 49° SW 12:39:55 10° SE daylight
